Find Starlink 37319

NORAD ID: 68707 Int'l Des: 2026-081 Owner: SPXS Country: US Constellation: starlink operational
LEOCIRCULAR

Live Position

Loading 3D Globe...

About Starlink 37319

Description loading...

Upcoming Passes

Passes for default location (London). Set your location on the main map for personalized predictions.

Altitude History

Loading altitude history...

Two-Line Element Set

1 68707C 26081H 26105.44076389 .00605200 00000+0 77840-3 0 1050
2 68707 53.1627 237.7012 0007548 303.0022 345.5263 16.06116575 17
Epoch: Apr 15, 2026 • Age: 22 hours

Current Status

Altitude 264.5 km
Velocity 7.75 km/s
Sub-Earth Point -29.35°S, 97.58°W
Launch Date Apr 14, 2026
Age 1 days
Type internet

Technical Details

Classification Payload
Mass 575.00 kg
Dry Mass 530.00 kg
Total Mass 575.00 kg
Length 0.30 m
Diameter 4.10 m
Span 29.00 m
Shape Box + pan
Manufacturer SPXS
Bus Type Starlink V2MO
Phase Status In Orbit
Owner/State SPXS/US

Most Searched